2022/12/18 00:00:00, 0.3,-1.3
2022/12/18 00:10:00, 0.3,-1.5
2022/12/18 00:20:00, 0.5,-1.5
2022/12/18 00:30:00, 0.6,-1.5
2022/12/18 00:40:00, 1.1,-1.7
2022/12/18 00:50:00, 2.2,-1.6
2022/12/18 01:00:00, 3.1,-1.7
2022/12/18 01:10:00, 3.8,-1.8
2022/12/18 01:20:00, 4.7,-1.8
2022/12/18 01:30:00, 5.5,-1.8
2022/12/18 01:40:00, 6.5,-2.1
2022/12/18 01:50:00, 7.6,-2.0
2022/12/18 02:00:00, 8.3,-2.1
2022/12/18 02:10:00, 9.1,-2.3
2022/12/18 02:20:00, 9.9,-2.2
2022/12/18 02:30:00,10.6,-2.4
2022/12/18 02:40:00,10.7,-2.4
2022/12/18 02:50:00,11.3,-2.4
2022/12/18 03:00:00,11.6,-2.6
2022/12/18 03:10:00,12.7,-2.6
2022/12/18 03:20:00,13.0,-2.7
2022/12/18 03:30:00,13.4,-2.6
2022/12/18 03:40:00,14.0,-2.7
2022/12/18 03:50:00,14.5,-2.8
2022/12/18 04:00:00,14.5,-2.9
2022/12/18 04:10:00,15.0,-3.0
2022/12/18 04:20:00,15.5,-3.1
2022/12/18 04:30:00,16.0,-3.0
2022/12/18 04:40:00,16.3,-3.2
2022/12/18 04:50:00,16.6,-3.3
2022/12/18 05:00:00,16.6,-3.2
2022/12/18 05:10:00,16.7,-3.5
2022/12/18 05:20:00,16.6,-3.3
2022/12/18 05:30:00,16.8,-3.5
2022/12/18 05:40:00,17.1,-3.9
2022/12/18 05:50:00,17.5,-3.9
2022/12/18 06:00:00,17.7,-3.9
2022/12/18 06:10:00,18.2,-4.1
2022/12/18 06:20:00,18.2,-4.1
2022/12/18 06:30:00,18.5,-4.0
2022/12/18 06:40:00,18.7,-3.9
2022/12/18 06:50:00,18.8,-4.2
2022/12/18 07:00:00,18.8,-3.9
2022/12/18 07:10:00,18.8,-4.2
2022/12/18 07:20:00,19.1,-3.7
2022/12/18 07:30:00,19.4,-3.9
2022/12/18 07:40:00,19.2,-4.1
2022/12/18 07:50:00,19.2,-3.7
2022/12/18 08:00:00,19.3,-4.0
2022/12/18 08:10:00,19.1,-3.8
2022/12/18 08:20:00,19.2,-3.9
2022/12/18 08:30:00,19.6,-3.5
2022/12/18 08:40:00,19.8,-3.4
2022/12/18 08:50:00,19.6,-3.8
2022/12/18 09:00:00,19.6,-4.3
2022/12/18 09:10:00,20.2,-4.4
2022/12/18 09:20:00,20.9,-4.3
2022/12/18 09:30:00,20.5,-4.1
2022/12/18 09:40:00,20.6,-3.8
2022/12/18 09:50:00,21.2,-4.0
2022/12/18 10:00:00,21.1,-3.6
2022/12/18 10:10:00,20.7,-2.5
2022/12/18 10:20:00,21.0,-4.0
2022/12/18 10:30:00,21.5,-3.9
2022/12/18 10:40:00,21.3,-3.9
2022/12/18 10:50:00,21.3,-4.0
2022/12/18 11:00:00,21.6,-3.4
2022/12/18 11:10:00,21.8,-3.8
2022/12/18 11:20:00,21.8,-3.5
2022/12/18 11:30:00,21.5,-4.3
2022/12/18 11:40:00,21.2,-3.7
2022/12/18 11:50:00,21.5,-4.2
2022/12/18 12:00:00,22.1,-3.5
2022/12/18 12:10:00,22.1, 0.0
2022/12/18 12:20:00,22.0,-2.8
2022/12/18 12:30:00,22.1,-3.6
2022/12/18 12:40:00,22.5,-3.9
2022/12/18 12:50:00,23.2,-1.8
2022/12/18 13:00:00,23.2,-2.5
2022/12/18 13:10:00,23.1,-0.9
2022/12/18 13:20:00,22.9,-1.8
2022/12/18 13:30:00,22.9,-3.2
2022/12/18 13:40:00,23.4,-2.2
2022/12/18 13:50:00,23.3,-0.7
2022/12/18 14:00:00,22.8,-1.7
2022/12/18 14:10:00,22.8,-1.5
2022/12/18 14:20:00,22.8,-1.5
2022/12/18 14:30:00,22.6,-2.3
2022/12/18 14:40:00,22.5,-3.0
2022/12/18 14:50:00,22.6,-2.6
2022/12/18 15:00:00,23.0,-2.4
2022/12/18 15:10:00,22.7,-2.8
2022/12/18 15:20:00,22.6,-2.5
2022/12/18 15:30:00,22.3,-2.0
2022/12/18 15:40:00,22.1,-2.7
2022/12/18 15:50:00,22.0,-2.8
2022/12/18 16:00:00,22.0,-3.5
2022/12/18 16:10:00,22.2,-3.9
2022/12/18 16:20:00,22.4,-3.9
2022/12/18 16:30:00,22.4,-4.3
2022/12/18 16:40:00,23.0,-4.3
2022/12/18 16:50:00,23.0,-4.5
2022/12/18 17:00:00,22.9,-4.6
2022/12/18 17:10:00,22.8,-4.5
2022/12/18 17:20:00,22.6,-4.6
2022/12/18 17:30:00,22.6,-4.6
2022/12/18 17:40:00,22.5,-4.6
2022/12/18 17:50:00,22.4,-4.1
2022/12/18 18:00:00,22.3,-4.3
2022/12/18 18:10:00,22.1,-4.3
2022/12/18 18:20:00,22.0,-4.4
2022/12/18 18:30:00,21.9,-4.3
2022/12/18 18:40:00,21.9,-4.3
2022/12/18 18:50:00,22.0,-4.6
2022/12/18 19:00:00,22.0,-4.8
2022/12/18 19:10:00,21.9,-4.4
2022/12/18 19:20:00,21.7,-4.5
2022/12/18 19:30:00,21.8,-4.2
2022/12/18 19:40:00,22.0,-4.5
2022/12/18 19:50:00,21.9,-4.6
2022/12/18 20:00:00,21.8,-4.4
2022/12/18 20:10:00,21.8,-4.4
2022/12/18 20:20:00,21.7,-4.0
2022/12/18 20:30:00,21.6,-4.1
2022/12/18 20:40:00,21.7,-4.6
2022/12/18 20:50:00,21.7,-4.6
2022/12/18 21:00:00,21.6,-4.5
2022/12/18 21:10:00,21.6,-4.6
2022/12/18 21:20:00,21.8,-4.7
2022/12/18 21:30:00,21.7,-4.6
2022/12/18 21:40:00,21.7,-4.8
2022/12/18 21:50:00,21.7,-4.8
2022/12/18 22:00:00,21.7,-4.5
2022/12/18 22:10:00,21.7,-4.5
2022/12/18 22:20:00,21.6,-4.5
2022/12/18 22:30:00,21.5,-4.5
2022/12/18 22:40:00,21.4,-4.3
2022/12/18 22:50:00,21.3,-4.8
2022/12/18 23:00:00,21.2,-4.8
2022/12/18 23:10:00,21.1,-4.7
2022/12/18 23:20:00,21.0,-4.8
2022/12/18 23:30:00,20.9,-4.8
2022/12/18 23:40:00,20.9,-4.3
2022/12/18 23:50:00,20.7,-4.3
